TimeMST,TemperatureF,Dew PointF,Humidity,Sea Level PressureIn,VisibilityMPH,Wind Direction,Wind SpeedMPH,Gust SpeedMPH,PrecipitationIn,Events,Conditions,WindDirDegrees,DateUTC
12:55 AM,39.2,15.8,39,30.06,10.0,West,6.9,-,N/A,,Clear,280,2012-12-10 07:55:00
1:55 AM,41.0,17.6,39,30.06,10.0,Calm,Calm,-,N/A,,Clear,0,2012-12-10 08:55:00
2:55 AM,39.2,15.8,39,30.06,10.0,Calm,Calm,-,N/A,,Partly Cloudy,0,2012-12-10 09:55:00
3:55 AM,41.0,14.0,33,30.05,10.0,Calm,Calm,-,N/A,,Partly Cloudy,0,2012-12-10 10:55:00
4:55 AM,37.4,12.2,36,30.06,10.0,Calm,Calm,-,N/A,,Partly Cloudy,0,2012-12-10 11:55:00
5:55 AM,37.4,12.2,36,30.09,10.0,Calm,Calm,-,N/A,,Partly Cloudy,0,2012-12-10 12:55:00
6:55 AM,35.6,12.2,38,30.10,10.0,Variable,3.5,-,N/A,,Clear,0,2012-12-10 13:55:00
7:55 AM,35.6,12.2,38,30.12,10.0,West,3.5,-,N/A,,Clear,270,2012-12-10 14:55:00
8:55 AM,39.2,10.4,31,30.11,10.0,Variable,2.3,-,N/A,,Clear,0,2012-12-10 15:55:00
9:55 AM,42.8,12.2,29,30.11,10.0,Variable,1.2,-,N/A,,Partly Cloudy,0,2012-12-10 16:55:00
10:55 AM,48.2,15.8,27,30.09,10.0,Variable,3.5,-,N/A,,Partly Cloudy,0,2012-12-10 17:55:00
11:55 AM,51.8,15.8,24,30.05,10.0,Variable,2.3,-,N/A,,Partly Cloudy,0,2012-12-10 18:55:00
12:55 PM,53.6,15.8,22,30.02,10.0,Variable,2.3,-,N/A,,Partly Cloudy,0,2012-12-10 19:55:00
1:55 PM,57.2,15.8,20,30.03,10.0,Calm,Calm,-,N/A,,Partly Cloudy,0,2012-12-10 20:55:00
2:55 PM,57.2,12.2,17,29.96,10.0,Calm,Calm,-,N/A,,Partly Cloudy,0,2012-12-10 21:55:00
3:55 PM,57.2,15.8,20,29.96,10.0,North,6.9,-,N/A,,Partly Cloudy,10,2012-12-10 22:55:00
4:55 PM,53.6,15.8,22,29.99,10.0,North,6.9,-,N/A,,Partly Cloudy,10,2012-12-10 23:55:00
5:55 PM,48.2,14.0,25,30.00,10.0,Calm,Calm,-,N/A,,Clear,0,2012-12-11 00:55:00
6:55 PM,44.6,14.0,29,30.03,10.0,Calm,Calm,-,N/A,,Clear,0,2012-12-11 01:55:00
7:55 PM,42.8,14.0,31,30.05,10.0,SSW,3.5,-,N/A,,Clear,210,2012-12-11 02:55:00
8:55 PM,42.8,14.0,31,30.04,10.0,SSW,3.5,-,N/A,,Clear,200,2012-12-11 03:55:00
9:55 PM,37.4,14.0,38,30.05,10.0,South,3.5,-,N/A,,Clear,170,2012-12-11 04:55:00
10:55 PM,39.2,14.0,36,30.03,10.0,SSW,4.6,-,N/A,,Clear,210,2012-12-11 05:55:00
11:55 PM,37.4,12.2,36,30.02,10.0,Calm,Calm,-,N/A,,Clear,0,2012-12-11 06:55:00